Tracking 20942 objects as of 4-Jul-2020
HD Live streaming from Space Station
objects crossing your sky now

DIAMOND RED

Track DIAMOND RED now!
10-day predictions


NORAD ID: 42783
Int'l Code: 2017-036U
Perigee: 496.7 km
Apogee: 512.0 km
Inclination: 97.3 °
Period: 94.6 minutes
Semi major axis: 6875 km
RCS: Unknown
Launch date: June 23, 2017
Source: Australia (AUS)
Launch site: SRIHARIKOTA (SRI)
aabbcc
Your satellite tracking list
Your tracking list is empty




NASA's NSSDC Master Catalog

Two Line Element Set (TLE):
1 42783U 17036U   20185.84153679 +.00000620 +00000-0 +29388-4 0  9992
2 42783 097.2995 238.8937 0011152 338.7962 021.2811 15.22863403168245
Source of the keplerian elements: AFSPC